Date String (YYYY-MM-DD hh:mm:ss) UTC,Instrument flags,Ambient pressure (hPa),Sample flow (lpm),Bypass flow (lpm),Sample temperature (°C),Ambient temperature (°C),ASC tube jacket temperature (°C),LED temperature (°C),Box temperature (°C),Sample RH (%),Span deviation,Mass concentration (μg/m³),Mass concentration (μg/m³),Mass concentration (μg/m³)
DateTimeUTC,F1_M11,P_M11,Q1_M11,Q2_M11,T1_M11,T2_M11,T3_M11,T4_M11,T5_M11,U1_M11,ZSPAN_M11,X0_M11,X2_M11,X1_M11
2022-03-22 20:00:00,,0827.7,5.00,0.00,22.0,22.4,00.0,30.8,23.8,08.6,0000.0,0003.77,0000.61,0000.36
2022-03-22 20:01:00,,0827.7,5.00,0.00,22.0,22.1,00.0,30.9,23.7,08.5,0000.0,0003.62,0000.55,0000.34
2022-03-22 20:02:00,,0827.7,5.01,0.00,22.0,22.0,00.0,30.9,23.7,08.4,0000.0,0002.85,0000.54,0000.33
2022-03-22 20:03:00,,0827.7,5.01,0.00,22.0,21.8,00.0,30.9,23.7,08.5,0000.0,0002.67,0000.55,0000.33
2022-03-22 20:04:00,,0827.7,4.98,0.00,21.9,21.7,00.0,30.9,23.6,08.5,0000.0,0002.72,0000.57,0000.33
2022-03-22 20:05:00,,0827.6,5.00,0.00,21.9,21.6,00.0,30.9,23.6,08.5,0000.0,0002.65,0000.57,0000.34
2022-03-22 20:06:00,,0827.5,5.01,0.00,21.9,21.5,00.0,30.9,23.6,08.2,0000.0,0002.60,0000.56,0000.34
2022-03-22 20:07:00,,0827.5,5.00,0.00,21.9,21.4,00.0,30.9,23.5,08.2,0000.0,0001.92,0000.57,0000.35
2022-03-22 20:08:00,,0827.5,5.01,0.00,21.9,21.4,00.0,30.9,23.5,08.4,0000.0,0001.20,0000.57,0000.36
2022-03-22 20:09:00,,0827.4,5.00,0.00,21.8,21.3,00.0,30.9,23.4,08.6,0000.0,0001.05,0000.54,0000.36
2022-03-22 20:10:00,,0827.5,5.01,0.00,21.8,21.2,00.0,30.9,23.4,08.4,0000.0,0000.96,0000.55,0000.37
2022-03-22 20:11:00,,0827.5,5.00,0.00,21.8,21.2,00.0,30.9,23.4,08.4,0000.0,0000.98,0000.56,0000.38
2022-03-22 20:12:00,,0827.6,5.00,0.00,21.8,21.1,00.0,30.9,23.3,08.6,0000.0,0001.01,0000.56,0000.38
2022-03-22 20:13:00,,0827.6,5.00,0.00,21.7,21.0,00.0,30.9,23.3,08.5,0000.0,0001.02,0000.56,0000.38
2022-03-22 20:14:00,,0827.5,5.00,0.00,21.7,21.0,00.0,30.8,23.3,08.5,0000.0,0001.12,0000.57,0000.39
2022-03-22 20:15:00,,0827.6,5.00,0.00,21.7,21.0,00.0,30.8,23.2,08.7,0000.0,0001.20,0000.54,0000.39
2022-03-22 20:16:00,,0827.6,5.00,0.00,21.6,20.9,00.0,30.8,23.2,08.9,0000.0,0001.23,0000.54,0000.39
2022-03-22 20:17:00,,0827.7,5.00,0.00,21.6,20.9,00.0,30.8,23.1,08.9,0000.0,0001.26,0000.56,0000.39
2022-03-22 20:18:00,,0827.7,5.00,0.00,21.6,20.9,00.0,30.8,23.1,08.9,0000.0,0001.36,0000.58,0000.39
2022-03-22 20:19:00,,0827.6,5.01,0.00,21.5,20.8,00.0,30.7,23.1,09.1,0000.0,0001.43,0000.59,0000.39
2022-03-22 20:20:00,,0827.6,4.99,0.00,21.5,20.8,00.0,30.7,23.0,08.9,0000.0,0001.46,0000.61,0000.39
2022-03-22 20:21:00,,0827.5,5.00,0.00,21.5,20.7,00.0,30.7,23.1,09.0,0000.0,0001.43,0000.59,0000.39
2022-03-22 20:22:00,,0827.6,5.00,0.00,21.5,20.6,00.0,30.7,23.0,08.8,0000.0,0001.63,0000.59,0000.39
2022-03-22 20:23:00,,0827.5,5.00,0.00,21.5,20.7,00.0,30.6,23.1,09.0,0000.0,0002.74,0000.60,0000.38
2022-03-22 20:24:00,,0827.5,4.99,0.00,21.4,20.7,00.0,30.6,23.0,08.8,0000.0,0002.72,0000.59,0000.38
2022-03-22 20:25:00,,0827.4,4.99,0.00,21.4,20.7,00.0,30.6,23.0,09.3,0000.0,0002.62,0000.59,0000.37
2022-03-22 20:26:00,,0827.4,5.00,0.00,21.4,20.7,00.0,30.6,23.1,09.4,0000.0,0002.58,0000.62,0000.37
2022-03-22 20:27:00,,0827.4,5.00,0.00,21.4,20.7,00.0,30.6,23.0,09.1,0000.0,0002.52,0000.62,0000.36
2022-03-22 20:28:00,,0827.4,5.01,0.00,21.4,21.0,00.0,30.6,23.1,09.1,0000.0,0002.62,0000.62,0000.35
2022-03-22 20:29:00,,0827.4,5.01,0.00,21.6,21.9,00.0,30.6,23.4,08.5,0000.0,0002.50,0000.59,0000.34
2022-03-22 20:30:00,,0827.4,5.00,0.00,21.7,23.0,00.0,30.7,23.8,08.5,0000.0,0002.47,0000.58,0000.33
2022-03-22 20:31:00,,0827.4,5.01,0.00,21.9,23.2,00.0,30.7,23.9,08.4,0000.0,0002.49,0000.59,0000.32
2022-03-22 20:32:00,,0827.4,4.99,0.00,21.9,22.8,00.0,30.7,23.8,08.4,0000.0,0002.51,0000.60,0000.32
2022-03-22 20:33:00,,0827.4,5.00,0.00,21.9,22.5,00.0,30.7,23.7,08.4,0000.0,0002.31,0000.60,0000.32
2022-03-22 20:34:00,,0827.4,4.99,0.00,21.9,22.2,00.0,30.8,23.6,08.6,0000.0,0001.17,0000.58,0000.32
2022-03-22 20:35:00,,0827.3,5.01,0.00,21.9,21.9,00.0,30.8,23.6,08.5,0000.0,0001.19,0000.59,0000.32
2022-03-22 20:36:00,,0827.4,4.99,0.00,21.8,21.8,00.0,30.8,23.5,08.4,0000.0,0001.10,0000.59,0000.33
2022-03-22 20:37:00,,0827.4,5.01,0.00,21.8,21.6,00.0,30.8,23.5,08.7,0000.0,0001.10,0000.59,0000.33
2022-03-22 20:38:00,,0827.3,5.00,0.00,21.8,21.5,00.0,30.8,23.6,08.7,0000.0,0001.08,0000.59,0000.34
2022-03-22 20:39:00,,0827.4,5.00,0.00,21.8,21.5,00.0,30.8,23.5,08.5,0000.0,0001.07,0000.58,0000.34
2022-03-22 20:40:00,,0827.2,4.99,0.00,21.8,21.4,00.0,30.8,23.5,08.2,0000.0,0001.10,0000.58,0000.35
2022-03-22 20:41:00,,0827.4,5.00,0.00,21.8,21.4,00.0,30.8,23.4,08.2,0000.0,0001.07,0000.57,0000.35
2022-03-22 20:42:00,,0827.4,5.00,0.00,21.8,21.3,00.0,30.8,23.4,08.1,0000.0,0001.05,0000.55,0000.36
2022-03-22 20:43:00,,0827.3,5.00,0.00,21.8,21.2,00.0,30.8,23.4,08.3,0000.0,0001.22,0000.56,0000.36
2022-03-22 20:44:00,,0827.2,5.00,0.00,21.8,21.1,00.0,30.8,23.4,08.5,0000.0,0001.45,0000.59,0000.36
2022-03-22 20:45:00,,0827.2,5.00,0.00,21.8,21.2,00.0,30.8,23.4,08.7,0000.0,0001.58,0000.62,0000.37
2022-03-22 20:46:00,,0827.2,5.00,0.00,21.8,21.2,00.0,30.8,23.4,08.2,0000.0,0001.70,0000.67,0000.37
2022-03-22 20:47:00,,0827.2,5.00,0.00,21.7,21.1,00.0,30.8,23.4,07.9,0000.0,0001.74,0000.69,0000.37
2022-03-22 20:48:00,,0827.1,5.00,0.00,21.7,21.1,00.0,30.8,23.3,07.9,0000.0,0002.37,0000.66,0000.37
2022-03-22 20:49:00,,0827.3,5.00,0.00,21.7,21.1,00.0,30.8,23.3,07.7,0000.0,0002.52,0000.69,0000.36
2022-03-22 20:50:00,,0827.4,4.99,0.00,21.6,21.1,00.0,30.8,23.3,07.9,0000.0,0002.46,0000.68,0000.36
2022-03-22 20:51:00,,0827.3,5.00,0.00,21.6,21.1,00.0,30.7,23.2,08.1,0000.0,0002.45,0000.69,0000.35
2022-03-22 20:52:00,,0827.3,5.00,0.00,21.6,21.1,00.0,30.7,23.2,08.1,0000.0,0002.52,0000.73,0000.36
2022-03-22 20:53:00,,0827.2,5.00,0.00,21.6,21.0,00.0,30.7,23.2,08.0,0000.0,0002.47,0000.73,0000.36
2022-03-22 20:54:00,,0827.3,5.00,0.00,21.6,21.0,00.0,30.7,23.2,08.1,0000.0,0002.32,0000.72,0000.36
2022-03-22 20:55:00,,0827.4,4.99,0.00,21.6,21.0,00.0,30.7,23.2,08.4,0000.0,0002.29,0000.73,0000.37
2022-03-22 20:56:00,,0827.6,5.01,0.00,21.6,21.0,00.0,30.7,23.2,10.2,0000.0,0002.87,0000.77,0000.38
2022-03-22 20:57:00,,0827.7,5.00,0.00,21.6,20.9,00.0,30.7,23.2,10.9,0000.0,0003.97,0000.78,0000.41
2022-03-22 20:58:00,,0827.7,5.00,0.00,21.6,20.9,00.0,30.7,23.3,11.3,0000.0,0004.38,0000.83,0000.44
2022-03-22 20:59:00,,0827.7,5.00,0.00,21.6,20.9,00.0,30.7,23.3,11.4,0000.0,0003.84,0000.91,0000.47
